User: anonymous   Login
Location: Unspecified
(0.0000°N, 0.0000°E)
Time: 20:40:13
(UTC+00:00)
Language:

Courier 1B - Orbit

View from above orbital plane
View from above orbital plane
View from above satellite
View from above satellite

Ground track
Ground track

The orbit data is extracted from the following two-line orbital elements,

1    58U 60013A   17142.90512427 +.00000099 +00000-0 +19416-4 0  9991
2    58 028.3288 024.4780 0165026 143.9437 217.2363 13.46308827787369
Epoch (UTC): 22 May 2017 21:43:22
Eccentricity: 0.0165026
inclination: 28.3288°
perigee height: 962 km
apogee height: 1209 km
right ascension of ascending node: 24.4780°
argument of perigee: 143.9437°
revolutions per day: 13.46308827
mean anomaly at epoch: 217.2363°
orbit number at epoch: 78736

The dashed part of the orbit path shows where the satellite is in the earth's shadow,  

DLR